Wind_Speed
38 38 39 39 38 38 38 38 39 38 38 38 39 39 40 40 39 39 39 40 40 40 40 40 41 41 41 43 44 45 46 46 46 47 48 48 48 49 50 50 51 51 50 49
38 39 39 39 38 38 38 38 38 38 39 39 39 39 39 39 38 38 38 38 39 39 39 40 40 40 40 41 41 42 43 44 44 45 46 47 47 47 47 47 48 48 49 49
40 40 40 38 38 38 38 38 38 38 38 38 38 38 38 38 37 37 37 38 38 38 38 39 39 39 39 39 39 40 40 41 42 42 44 45 45 45 46 45 46 46 47 48
41 41 40 40 39 38 38 38 38 38 38 38 37 37 37 37 36 36 36 37 38 37 37 38 38 39 39 39 39 39 39 40 41 41 42 43 44 45 45 45 46 46 46 47
41 41 41 39 39 38 38 37 38 38 37 38 37 37 37 37 37 37 37 37 38 37 38 38 39 39 39 39 39 40 40 40 41 41 42 42 43 43 44 44 45 45 45 46
41 41 41 40 40 39 39 38 38 38 38 38 38 37 36 37 37 37 37 38 38 38 38 38 38 39 39 38 38 38 39 40 40 40 41 42 42 42 42 42 42 43 44 44
40 40 40 40 40 40 39 39 38 38 38 38 37 37 37 36 36 36 37 37 37 37 38 38 37 37 37 37 36 37 37 38 38 39 39 39 40 40 41 41 41 41 42 43
40 40 40 40 40 39 39 39 39 38 38 38 38 37 37 37 36 36 36 36 36 37 37 38 37 36 35 35 35 35 35 35 36 36 37 38 37 38 39 39 39 39 40 40
40 40 40 40 40 40 40 39 39 39 38 38 38 38 38 37 37 37 36 36 36 36 36 37 37 36 34 34 33 33 32 33 33 34 34 35 35 35 36 37 38 38 38 38
40 40 41 41 41 40 40 40 40 39 39 39 38 38 38 37 37 37 36 36 36 36 36 35 34 34 34 33 32 32 31 31 31 32 33 33 34 34 35 36 36 37 37 36
40 40 41 41 41 41 40 40 40 39 39 39 39 38 38 37 37 37 36 36 36 36 34 33 33 32 32 31 31 31 31 31 31 31 31 31 32 33 33 34 34 35 35 36
40 40 40 40 40 40 39 39 39 39 38 39 39 38 37 36 36 35 35 34 34 34 33 32 31 31 31 30 30 31 31 31 31 31 31 31 31 31 31 32 33 33 34 34
39 39 39 39 39 39 38 38 38 38 37 37 37 37 36 35 34 34 34 33 33 32 32 31 31 31 30 29 29 29 29 29 29 29 30 30 30 31 31 31 32 32 32 32
39 39 38 38 38 38 38 37 37 37 37 37 36 35 35 34 34 34 33 33 32 31 31 30 30 30 29 29 28 28 27 27 27 27 28 29 29 30 30 30 31 31 32 32
38 38 38 38 38 38 37 37 36 36 36 35 35 35 34 34 33 33 33 32 31 30 30 29 29 29 29 28 27 26 26 25 25 25 25 25 26 27 28 29 30 31 31 31
37 37 37 37 37 37 36 35 35 35 35 34 35 34 34 33 33 32 31 31 30 30 29 29 28 27 27 27 26 25 25 25 24 24 24 24 25 26 26 27 29 29 30 31
36 36 36 36 36 35 35 34 34 34 34 34 34 33 33 33 32 32 31 30 30 29 29 28 27 27 26 25 25 24 24 24 23 24 24 25 25 26 26 26 27 28 28 29
35 36 35 35 34 34 34 34 34 34 34 34 34 33 33 32 31 31 30 30 29 28 28 28 27 26 26 25 23 23 23 23 23 23 23 24 25 25 26 27 27 27 27 27
35 35 35 35 34 34 34 34 34 34 34 33 33 33 32 32 31 30 29 29 28 27 27 27 26 25 24 24 23 23 22 22 22 22 22 23 23 24 24 26 26 26 27 27
35 35 34 34 34 34 34 34 34 34 34 33 33 33 32 31 31 30 29 28 27 26 26 26 25 24 24 23 23 23 22 21 21 20 21 21 22 22 23 25 26 26 26 26
34 34 34 34 34 34 33 33 33 33 33 33 33 32 31 31 30 29 28 27 27 26 26 25 24 24 23 23 23 22 21 20 20 19 19 19 20 20 21 22 23 24 25 25
34 34 34 34 34 34 33 33 33 34 34 33 33 32 31 30 30 29 28 27 26 26 25 24 24 23 23 22 21 20 20 19 19 18 18 18 19 19 20 20 21 22 23 23
33 34 33 33 33 33 34 34 34 34 34 33 32 32 31 30 29 28 27 26 25 25 24 24 23 23 22 21 20 19 18 18 17 17 17 17 18 18 19 19 20 21 22 22
33 34 34 34 34 34 34 34 34 34 34 33 32 31 30 29 28 27 26 25 24 24 24 23 23 22 21 20 19 18 17 17 17 17 17 17 17 18 18 19 20 20 21 22
34 34 34 35 35 35 35 34 34 34 33 33 32 30 29 27 26 26 25 25 24 24 23 22 22 21 20 19 18 18 17 17 16 16 16 16 17 18 18 18 19 19 20 21
34 35 35 35 35 35 34 34 33 33 32 32 31 30 28 27 26 25 25 24 24 23 22 21 20 20 19 19 18 18 17 17 16 15 15 15 16 17 18 18 18 19 19 20
35 35 35 35 35 34 34 33 33 33 32 31 30 29 28 26 26 25 24 23 23 22 21 20 20 19 18 17 17 17 17 16 16 16 17 16 16 17 18 18 18 19 19 20
Wind_Direction
308 309 308 307 306 304 302 301 298 299 298 297 296 295 293 292 290 289 289 287 286 283 279 277 275 275 273 271 269 267 264 261 259 258 257 256 255 255 254 253 253 252 252 252
308 308 308 307 306 305 304 302 300 299 299 298 297 296 295 293 292 290 290 288 288 285 281 279 278 277 276 274 271 268 265 263 261 260 258 257 256 255 255 253 253 252 252 251
308 307 307 306 307 306 305 304 301 300 300 299 297 296 295 294 292 290 289 288 288 287 284 280 278 277 276 275 272 269 266 264 263 262 260 258 257 256 255 254 253 252 252 251
309 308 307 309 308 307 306 305 304 302 301 301 300 298 297 295 293 291 289 289 289 287 286 283 281 278 278 276 274 270 268 265 263 262 262 261 259 257 256 254 253 253 253 251
309 308 308 308 308 307 307 306 305 304 302 301 301 300 298 296 294 292 290 290 289 288 287 285 283 280 279 278 275 271 269 267 265 264 263 262 260 258 257 255 253 253 252 251
310 308 308 309 308 308 307 306 306 305 304 303 302 300 298 296 295 294 292 291 290 290 288 287 285 283 281 280 277 273 270 268 266 265 264 262 260 258 257 255 254 253 252 251
309 308 308 309 308 308 307 307 307 305 305 303 303 303 300 298 297 296 295 293 291 291 290 287 286 285 283 281 278 275 272 270 268 266 264 263 260 257 256 254 253 252 252 251
308 308 309 309 307 307 307 307 306 305 305 304 303 303 302 299 297 297 297 296 294 292 291 289 287 286 285 282 279 276 273 270 268 266 264 263 260 257 255 253 252 252 251 250
307 307 307 308 307 306 306 306 305 305 305 304 303 302 301 299 297 297 297 296 295 294 293 291 289 287 286 283 280 277 273 271 269 267 264 262 259 256 253 252 250 249 250 249
306 306 305 306 306 306 305 305 304 304 304 304 304 303 301 299 297 296 296 296 296 296 295 293 291 289 287 284 280 277 274 271 270 267 265 261 258 255 253 251 249 248 247 247
305 305 304 304 305 305 304 304 304 304 303 303 303 303 302 300 298 297 297 297 297 297 296 295 293 291 288 284 281 277 274 272 271 270 266 261 258 254 252 250 249 248 246 246
306 306 306 305 305 305 305 304 303 303 302 302 303 303 302 301 300 299 298 298 298 298 297 296 295 293 290 286 282 279 274 271 270 267 265 262 258 254 251 249 248 247 245 245
307 307 307 307 307 306 306 305 304 303 303 303 304 303 303 302 301 301 300 300 299 298 297 296 296 295 292 289 285 282 278 273 269 265 263 260 256 251 248 248 247 246 245 245
307 308 308 308 308 307 306 305 304 304 305 305 305 304 304 303 302 302 301 301 300 299 298 297 296 296 294 291 288 285 280 275 270 266 262 259 254 251 249 248 246 245 246 246
307 308 308 308 308 307 306 305 305 305 306 306 306 306 305 303 303 302 302 301 300 300 300 299 298 296 295 292 289 286 282 277 272 267 263 260 255 251 249 248 246 245 245 244
307 308 309 308 308 308 308 307 306 307 307 307 307 306 305 304 303 303 302 301 300 300 300 299 298 297 296 294 289 286 283 279 274 268 264 260 256 253 251 249 246 244 243 242
308 309 309 309 310 309 309 308 307 308 308 308 308 307 306 305 304 303 302 301 300 300 300 300 299 297 296 295 292 287 283 278 274 270 266 262 259 255 252 249 245 244 243 242
308 309 310 310 310 310 309 309 309 309 309 309 309 308 307 306 304 303 302 300 300 300 300 300 300 298 297 295 293 290 285 279 275 271 266 263 260 255 252 249 246 246 244 242
309 309 309 310 310 310 310 310 310 310 310 310 310 309 307 306 306 305 303 301 300 300 299 300 300 299 297 295 293 291 286 281 276 271 266 263 259 255 252 249 247 246 245 242
308 309 309 309 310 310 311 311 311 311 311 311 311 310 308 307 306 306 304 303 301 300 300 300 300 299 298 296 293 291 287 282 278 272 267 263 259 255 252 249 246 245 243 242
309 309 309 309 309 310 311 312 312 313 312 312 311 311 309 307 307 306 304 303 301 300 300 300 300 299 298 297 294 290 286 282 278 273 269 264 259 255 252 248 245 243 242 241
309 309 309 309 309 309 310 312 313 313 313 312 312 312 310 309 308 306 305 303 301 300 299 299 298 298 297 297 296 292 285 281 277 273 268 263 259 255 251 247 245 244 243 242
309 310 310 310 310 310 310 311 312 313 313 313 312 311 311 310 308 307 306 304 303 301 300 298 298 297 296 296 294 292 287 280 275 272 268 263 259 253 250 247 246 246 245 243
310 310 310 310 310 310 311 311 311 312 312 313 312 311 311 310 310 309 308 306 304 303 300 298 297 296 295 294 292 290 286 281 275 271 268 264 257 252 250 249 249 248 247 245
311 311 311 311 311 311 311 311 311 311 312 312 312 311 310 310 309 309 309 308 306 304 301 298 296 295 293 291 289 288 284 280 276 272 269 263 256 253 252 251 250 250 248 245
311 312 312 312 312 311 311 311 311 312 312 311 311 310 309 308 308 308 308 308 307 306 303 299 297 295 292 289 287 285 283 280 276 272 267 264 259 256 253 251 252 252 251 248
312 313 313 313 313 313 312 312 312 311 311 310 310 309 307 307 307 307 308 308 307 306 304 301 298 296 293 290 287 285 282 279 275 271 267 264 262 259 255 253 254 253 252 250
Height
5612 5607 5602 5597 5592 5587 5582 5577 5573 5570 5565 5562 5557 5553 5549 5546 5543 5540 5537 5534 5532 5530 5528 5526 5525 5523 5522 5521 5520 5520 5521 5522 5524 5525 5527 5528 5530 5532 5535 5537 5540 5543 5546 5549
5604 5599 5593 5589 5584 5579 5574 5569 5564 5560 5557 5552 5548 5544 5539 5536 5533 5530 5527 5524 5521 5519 5517 5515 5513 5512 5511 5510 5509 5508 5509 5510 5511 5512 5513 5515 5517 5519 5522 5524 5527 5530 5533 5536
5595 5590 5585 5581 5577 5570 5565 5560 5556 5551 5548 5543 5539 5534 5530 5527 5523 5520 5517 5514 5511 5508 5506 5504 5502 5501 5500 5498 5497 5497 5497 5498 5498 5500 5501 5502 5504 5506 5509 5511 5514 5517 5520 5523
5585 5581 5577 5575 5567 5562 5557 5552 5547 5542 5538 5533 5529 5525 5521 5517 5513 5510 5507 5504 5501 5498 5496 5494 5492 5490 5488 5487 5486 5485 5485 5486 5486 5487 5488 5490 5491 5493 5496 5498 5501 5505 5507 5511
5576 5570 5567 5564 5558 5553 5548 5544 5539 5534 5529 5525 5520 5517 5512 5508 5504 5501 5497 5494 5491 5488 5485 5483 5481 5479 5477 5476 5475 5474 5474 5474 5474 5475 5476 5477 5479 5480 5483 5486 5489 5492 5495 5498
5567 5561 5557 5556 5549 5543 5539 5535 5531 5525 5520 5516 5511 5508 5505 5499 5495 5491 5488 5484 5481 5477 5474 5472 5470 5468 5466 5464 5463 5462 5462 5462 5462 5463 5464 5465 5466 5468 5470 5473 5476 5479 5482 5485
5559 5552 5549 5546 5540 5534 5531 5527 5521 5516 5511 5507 5502 5498 5494 5490 5486 5482 5478 5474 5471 5467 5464 5462 5459 5457 5455 5453 5452 5450 5450 5450 5450 5450 5451 5452 5454 5455 5458 5461 5464 5467 5470 5474
5550 5545 5543 5536 5531 5527 5522 5517 5511 5507 5502 5498 5493 5489 5484 5480 5476 5472 5468 5465 5461 5457 5454 5451 5448 5445 5444 5442 5440 5439 5438 5438 5438 5438 5439 5440 5442 5444 5446 5449 5452 5455 5458 5461
5543 5539 5533 5527 5522 5517 5513 5508 5503 5498 5494 5489 5485 5480 5475 5471 5467 5463 5459 5455 5451 5448 5444 5441 5437 5435 5433 5431 5430 5428 5427 5427 5427 5427 5428 5428 5430 5432 5434 5437 5440 5443 5446 5450
5533 5529 5523 5518 5513 5508 5503 5498 5493 5489 5484 5480 5475 5470 5466 5461 5457 5453 5449 5446 5442 5438 5434 5431 5427 5424 5422 5421 5419 5418 5417 5417 5416 5417 5417 5418 5419 5421 5423 5426 5429 5432 5435 5439
5524 5519 5514 5509 5504 5499 5494 5489 5484 5480 5475 5470 5466 5461 5456 5452 5448 5444 5440 5436 5432 5428 5425 5421 5418 5415 5412 5411 5409 5408 5407 5407 5406 5406 5407 5407 5408 5410 5413 5416 5418 5422 5425 5428
5516 5510 5505 5500 5495 5490 5485 5480 5475 5471 5466 5461 5456 5452 5447 5443 5438 5434 5430 5427 5423 5419 5416 5412 5409 5406 5404 5401 5399 5398 5397 5396 5396 5396 5396 5397 5399 5400 5402 5406 5408 5411 5414 5418
5506 5501 5496 5491 5486 5480 5476 5471 5466 5461 5457 5452 5447 5443 5438 5434 5430 5426 5422 5418 5414 5411 5407 5404 5401 5398 5395 5392 5390 5388 5387 5386 5386 5386 5386 5387 5389 5391 5394 5396 5399 5402 5405 5408
5497 5493 5487 5482 5477 5472 5467 5462 5457 5452 5448 5443 5439 5434 5430 5425 5421 5417 5413 5409 5406 5402 5399 5396 5393 5389 5386 5384 5381 5379 5378 5377 5377 5377 5377 5378 5380 5382 5385 5387 5390 5393 5396 5399
5489 5484 5479 5473 5468 5463 5458 5453 5449 5444 5439 5435 5430 5426 5421 5417 5413 5409 5405 5401 5398 5394 5391 5388 5385 5381 5378 5376 5373 5371 5370 5369 5368 5368 5369 5370 5371 5373 5376 5378 5381 5385 5388 5391
5480 5475 5470 5465 5459 5454 5449 5445 5440 5436 5431 5427 5422 5417 5413 5408 5404 5400 5397 5393 5390 5386 5383 5380 5377 5374 5371 5368 5366 5364 5362 5361 5361 5361 5362 5363 5364 5366 5368 5370 5373 5376 5379 5382
5472 5467 5461 5456 5451 5446 5441 5437 5432 5428 5423 5418 5414 5409 5405 5400 5396 5393 5389 5385 5382 5378 5375 5372 5369 5366 5363 5361 5358 5356 5355 5354 5353 5354 5354 5355 5357 5358 5360 5362 5365 5368 5371 5373
5463 5458 5453 5448 5443 5438 5433 5429 5424 5420 5415 5410 5406 5401 5397 5393 5389 5385 5381 5378 5374 5371 5368 5365 5362 5359 5356 5354 5351 5350 5348 5347 5347 5347 5347 5348 5349 5351 5353 5355 5358 5360 5363 5366
5454 5450 5445 5440 5435 5430 5426 5421 5416 5412 5407 5403 5398 5393 5389 5385 5381 5377 5373 5370 5367 5364 5361 5357 5354 5352 5349 5347 5345 5343 5341 5341 5340 5340 5340 5341 5342 5344 5345 5348 5350 5353 5355 5358
5446 5441 5437 5432 5427 5423 5418 5414 5409 5404 5399 5395 5390 5386 5381 5377 5373 5370 5366 5363 5359 5357 5354 5351 5348 5345 5342 5340 5338 5336 5335 5334 5334 5334 5334 5334 5335 5337 5338 5340 5343 5345 5348 5351
5438 5433 5429 5424 5420 5415 5411 5406 5402 5397 5392 5387 5383 5378 5374 5370 5366 5362 5359 5356 5352 5349 5347 5344 5341 5339 5336 5334 5332 5330 5329 5328 5327 5327 5327 5328 5329 5330 5332 5334 5336 5338 5341 5344
5430 5425 5421 5416 5412 5407 5403 5398 5394 5389 5384 5380 5375 5371 5367 5362 5358 5355 5351 5348 5345 5342 5340 5337 5335 5332 5330 5327 5325 5323 5322 5321 5321 5321 5321 5322 5323 5324 5325 5327 5329 5332 5334 5336
5422 5418 5413 5409 5404 5400 5395 5391 5386 5381 5377 5372 5368 5363 5359 5355 5351 5347 5344 5341 5338 5335 5332 5330 5328 5325 5323 5321 5319 5318 5316 5316 5315 5315 5315 5316 5317 5318 5319 5321 5323 5325 5327 5329
5415 5410 5405 5401 5396 5392 5387 5383 5378 5373 5369 5364 5360 5355 5351 5348 5344 5340 5337 5334 5331 5328 5325 5323 5321 5319 5317 5315 5313 5312 5311 5310 5310 5309 5310 5310 5311 5312 5313 5315 5317 5318 5320 5322
5407 5402 5397 5393 5388 5384 5379 5374 5370 5365 5361 5356 5352 5348 5344 5340 5337 5334 5330 5327 5324 5321 5318 5316 5314 5312 5311 5309 5308 5306 5305 5304 5304 5304 5304 5305 5305 5307 5308 5309 5311 5312 5314 5316
5398 5394 5389 5384 5380 5375 5371 5366 5362 5357 5353 5349 5344 5340 5336 5333 5330 5326 5323 5320 5317 5314 5312 5310 5308 5306 5304 5303 5302 5301 5300 5299 5299 5299 5299 5299 5300 5301 5302 5303 5305 5306 5308 5309
5390 5385 5381 5376 5371 5367 5362 5358 5353 5349 5345 5341 5337 5333 5329 5326 5322 5319 5316 5313 5311 5308 5306 5303 5301 5300 5298 5297 5296 5295 5294 5294 5293 5293 5294 5294 5295 5295 5296 5297 5299 5300 5301 5303